Weather Roundup
Issued by NWS

Home | Current Version | Previous Version | Text Only | Print | Product List | Glossary On
Versions: 1 2 3 4 5 6 7 8 9 10 11 12 13 14 15 16 17 18 19 20 21 22 23 24 25 26 27 28 29 30 31 32 33 34 35 36 37 38 39 40 41 42 43 44 45 46 47 48 49 50
550
NZUS93 KARX 262059
HRRWXR

CURRENT HOURLY OBSERVATIONS ACROSS
MUCH OF THE UPPER MISSISSIPPI VALLEY
NATIONAL WEATHER SERVICE LA CROSSE WI
400 PM CDT TUE JUL 26 2016


...SOUTHEAST MINNESOTA...


CITY           SKY/WX    TMP DP  RH WIND       PRES   REMARKS
ROCHESTER      SUNNY     85  70  60 SW6       30.05F
ROCHESTER/MAYO FAIR      87  63  45 W5        30.04F
WINONA         SUNNY     90  64  43 W5        30.01S HX  91
AUSTIN         SUNNY     84  66  54 SW5       30.04F
ALBERT LEA     SUNNY     84  68  58 SW6       30.05S
DODGE CENTER   SUNNY     88  64  45 SW8       30.05S
PRESTON        MOSUNNY   83  64  53 W3        30.05F
OWATONNA       SUNNY     84  66  54 SW5       30.04S
FARIBAULT      SUNNY     88  70  55 SW6       30.04S HX  92
$$

...ELSEWHERE IN MINNESOTA...


CITY           SKY/WX    TMP DP  RH WIND       PRES   REMARKS
MINNEAPOLIS    MOSUNNY   90  63  40 W18G25    29.98S HX  91
INTNL FALLS    MOSUNNY   81  64  56 NE9       29.95S
DULUTH         CLOUDY    82  67  60 W10       29.97S
RED WING       SUNNY     90  61  37 SW10      29.98F
REDWOOD FALLS  MOSUNNY   88  63  43 SW10      30.02R
MANKATO        MOSUNNY   84  68  58 S12       30.03S
WORTHINGTON    SUNNY     84  68  58 S8        30.07R
FAIRMONT       SUNNY     84  66  54 SW7       30.04S
$$

...SOUTHWEST WISCONSIN...


CITY           SKY/WX    TMP DP  RH WIND       PRES   REMARKS
LA CROSSE      SUNNY     88  66  48 SW6       30.00F HX  90
PRAIRIE DU CHI SUNNY     85  59  41 CALM      30.03F
BOSCOBEL       SUNNY     88  64  44 CALM      30.02F
LONE ROCK      NOT AVBL
PLATTEVILLE    SUNNY     82  66  58 CALM      30.06S
FORT MC COY    SUNNY     86  65  49 NW3       30.03F
MAUSTON-NEW LI PTCLDY    85  68  56 NW5       30.03S
VIROQUA        FAIR      84  64  50 W3        30.06F
WIS DELLS      NOT AVBL
$$

...ELSEWHERE IN WISCONSIN...


CITY           SKY/WX    TMP DP  RH WIND       PRES   REMARKS
MILWAUKEE      MOSUNNY   85  61  44 SE10      30.01F
MADISON        MOSUNNY   85  64  49 NW7       30.03F
GREEN BAY      MOSUNNY   85  70  60 SW14      29.99F
EAU CLAIRE     NOT AVBL
BLACK RVR FLS  FAIR      87  64  45 SW6       30.01F
MEDFORD        SUNNY     83  65  53 SW13      30.01F
WAUSAU         SUNNY     87  64  46 W12G18    29.99F
WIS RAPIDS     MOSUNNY   88  62  41 SW10      30.02F
MARSHFIELD     SUNNY     86  65  49 W13       30.01F
RICE LAKE      SUNNY     86  64  46 SW13G18   29.99S
$$

...NORTHEAST IOWA...


CITY           SKY/WX    TMP DP  RH WIND       PRES   REMARKS
WATERLOO       SUNNY     84  64  50 E7        30.02F
DUBUQUE        SUNNY     83  61  47 SE3       30.05F
DECORAH        MOSUNNY   84  66  54 E5        30.03F
MASON CITY     MOSUNNY   84  66  54 S3        30.06F
CHARLES CITY   PTSUNNY   84  68  58 CALM      30.05F
OELWEIN        PTSUNNY   82  68  61 CALM      30.05F
$$

...ELSEWHERE IN IOWA...


CITY           SKY/WX    TMP DP  RH WIND       PRES   REMARKS
DES MOINES     MOSUNNY   86  64  47 E8        30.02F
IOWA CITY      PTSUNNY   85  65  51 SE5       30.04F
FORT DODGE     MOSUNNY   82  66  57 SE6       30.05S
MARSHALLTOWN   SUNNY     83  64  52 CALM      30.03F
CEDAR RAPIDS   MOSUNNY   84  68  58 VRB5      30.03F
$$

...NORTHERN ILLINOIS...


CITY           SKY/WX    TMP DP  RH WIND       PRES   REMARKS
CHICAGO-OHARE  MOSUNNY   85  64  49 E7        30.01F
CHICAGO-MIDWAY MOSUNNY   86  63  45 NE12      30.00F
MOLINE         SUNNY     87  63  44 SE5       30.01F
ROCKFORD       MOSUNNY   85  64  49 S5        30.03F
PEORIA         PTSUNNY   84  66  54 VRB3      30.00F
$$

NOTE: "FAIR" INDICATES FEW OR NO CLOUDS BELOW 12,000 FEET WITH NO
SIGNIFICANT WEATHER AND/OR OBSTRUCTIONS TO VISIBILITY. WIND
SPEEDS ARE IN MILES-PER-HOUR.




USA.gov is the U.S. government's official web portal to all federal, state and local government web resources and services.